Tracking 35331 objects as of 16-Sep-2026
HD Live streaming from Space Station
objects crossing your sky now

HULIANWANG DIGUI-184

Track HULIANWANG DIGUI-184 now!
10-day predictions


NORAD ID: 100209
Int'l Code: 2026-176G
Launch date: August 4, 2026
Source: People's Republic of China (PRC)
Launch site: Wenchang Satellite Launch Center (WSC)
Your satellite tracking list
Your tracking list is empty




NASA's NSSDC Master Catalog

Two Line Element Set (TLE):
1 A0209U 26176G   26258.63272570 -.00000085  00000-0  83970-4 0  9993
2 A0209  49.9964 241.2972 0000236   6.0321 354.0554 13.29327757  5652
Source of the keplerian elements: AFSPC